NOAA 15 1 25338U 98030A 25137.53219159 .00000283 00000-0 13384-3 0 9999 2 25338 98.5365 163.2166 0011402 70.0869 290.1539 14.26966569404867 NAVSTAR 50 (USA 156) 1 26690U 01004A 25137.26850091 -.00000057 00000-0 00000-0 0 9990 2 26690 54.9066 47.2078 0003154 3.1441 184.1881 1.91588272175950 METEOSAT 8 (MSG 1) 1 27509U 02040B 25137.40322632 -.00000093 00000-0 00000-0 0 9992 2 27509 10.4752 44.2963 0015217 63.5525 119.3785 0.97904324 83063 NAVSTAR 51 (USA 166) 1 27663U 03005A 25137.24894253 .00000015 00000-0 00000+0 0 9992 2 27663 54.9818 230.7052 0142754 50.1545 320.5367 2.00555938163365 NAVSTAR 54 (USA 177) 1 28190U 04009A 25137.56986189 -.00000023 00000-0 00000-0 0 9999 2 28190 55.1653 291.6392 0104597 159.8173 240.1934 2.00568337155018 NAVSTAR 55 (USA 178) 1 28361U 04023A 25137.02963550 .00000039 00000-0 00000-0 0 9999 2 28361 54.6037 102.7368 0156227 290.7135 254.1486 2.00562915153092 NAVSTAR 56 (USA 180) 1 28474U 04045A 25136.98435691 -.00000064 00000-0 00000-0 0 9991 2 28474 55.3340 340.8306 0165994 303.0636 94.8067 2.00560139150484 NOAA 18 1 28654U 05018A 25137.54758491 .00000283 00000-0 17342-3 0 9993 2 28654 98.8420 217.2824 0014124 190.3268 169.7617 14.13599042 30418 NAVSTAR 57 (USA 183) 1 28874U 05038A 25137.55282804 -.00000021 00000-0 00000-0 0 9991 2 28874 55.2100 289.1127 0132452 290.0280 122.9037 2.00562411143904 METEOSAT 9 (MSG 2) 1 28912U 05049B 25136.88715226 .00000137 00000-0 00000-0 0 9997 2 28912 8.4572 57.9345 0002061 359.6722 182.2877 1.00270437 3031 GOES 13 1 29155U 06018A 25137.23566139 -.00000150 00000-0 00000-0 0 9997 2 29155 3.5015 81.2549 0063131 265.8938 336.4025 0.98813733 39335 METOP-A 1 29499U 06044A 25137.56407529 .00001946 00000-0 23810-3 0 9990 2 29499 98.3299 227.6795 0178312 248.8377 237.9321 14.73910625967135 NAVSTAR 59 (USA 192) 1 29601U 06052A 25137.54718229 .00000014 00000-0 00000-0 0 9992 2 29601 55.0224 229.6965 0086009 86.2130 274.8218 2.00561564135471 NAVSTAR 60 (USA 196) 1 32260U 07047A 25137.35673944 .00000030 00000-0 00000-0 0 9993 2 32260 53.8100 96.4121 0160131 80.9831 280.7968 2.00573932128873 NAVSTAR 61 (USA 199) 1 32384U 07062A 25136.93103344 -.00000023 00000-0 00000-0 0 9995 2 32384 55.3571 290.0511 0031543 155.8928 26.3758 2.00566330127567 NOAA 19 1 33591U 09005A 25137.55031369 .00000253 00000-0 15878-3 0 9997 2 33591 98.9981 202.1242 0014743 71.2594 289.0176 14.13362959838596 GOES 14 1 35491U 09033A 25137.54234294 -.00000055 00000-0 00000-0 0 9999 2 35491 0.6558 88.3266 0001498 38.9435 195.0885 1.00272068 2627 GOES 15 1 36411U 10008A 25137.47475384 .00000048 00000-0 00000-0 0 9996 2 36411 0.2495 85.9503 0001167 122.9739 259.1069 1.00266918 55673 ELEKTRO-L 1 37344U 11001A 25137.07961322 -.00000130 00000-0 00000-0 0 9997 2 37344 8.7842 58.4409 0005072 23.1164 165.3873 1.00251581 52512 COSMOS 2471 (GLONASS) 1 37372U 11009A 25136.56005067 -.00000029 00000-0 00000-0 0 9991 2 37372 65.6292 327.8591 0008799 330.7741 210.3693 2.12911493110634 NAVSTAR 66 (USA 232) 1 37753U 11036A 25136.74150426 -.00000067 00000-0 00000-0 0 9996 2 37753 56.7141 347.4239 0135662 59.7615 119.5054 2.00566723101322 GALILEO-PFM 1 37846U 11060A 25136.31697863 -.00000069 00000-0 00000-0 0 9992 2 37846 57.1000 352.5187 0003743 35.3161 324.7535 1.70475880 84359 GALILEO-FM2 1 37847U 11060B 25133.01094310 -.00000078 00000-0 00000-0 0 9995 2 37847 57.1000 352.6082 0004063 4.4338 171.9819 1.70476113 84306 LUCH 5A 1 37951U 11074B 25137.60498506 -.00000037 00000-0 00000-0 0 9995 2 37951 7.7467 79.7317 0003033 350.9667 189.5615 1.00270603 49082 METEOSAT 10 (MSG 3) 1 38552U 12035B 25137.16365322 .00000006 00000-0 00000-0 0 9996 2 38552 3.7355 62.0623 0000892 10.0774 221.9567 1.00270113 46888 METOP-B 1 38771U 12049A 25137.59143704 .00000170 00000-0 97171-4 0 9990 2 38771 98.5784 192.4529 0001994 85.4756 274.6650 14.21495248657063 NAVSTAR 67 (USA 239) 1 38833U 12053A 25137.44957925 .00000075 00000-0 00000-0 0 9991 2 38833 53.5351 159.8038 0164673 60.3385 301.3415 2.00562595 91501 GALILEO-FM3 1 38857U 12055A 25136.94310101 .00000052 00000-0 00000-0 0 9997 2 38857 55.5740 112.4295 0005784 289.0408 70.8623 1.70473521 78256 NAVSTAR 68 (USA 242) 1 39166U 13023A 25136.81412390 -.00000021 00000-0 00000-0 0 9993 2 39166 54.8261 285.0913 0133258 47.8353 313.2705 2.00561307 87935 INSAT 3D 1 39216U 13038B 25137.47487192 -.00000326 00000-0 00000-0 0 9998 2 39216 0.9019 87.8900 0000988 309.9441 138.1220 1.00274595 43118 NAVSTAR 69 (USA 248) 1 39533U 14008A 25137.31221897 .00000072 00000-0 00000-0 0 9996 2 39533 53.6125 165.4598 0078416 225.2255 134.1913 2.00561752 81744 LUCH 5V 1 39727U 14023A 25137.32525199 -.00000256 00000-0 00000-0 0 9996 2 39727 4.1426 73.4921 0002573 9.5280 4.0866 1.00269179 40399 NAVSTAR 70 (USA 251) 1 39741U 14026A 25137.09411105 -.00000066 00000-0 00000-0 0 9999 2 39741 56.6544 346.9195 0035282 320.4055 39.3749 2.00576424 80599 NAVSTAR 71 (USA 256) 1 40105U 14045A 25137.18056546 .00000044 00000-0 00000-0 0 9995 2 40105 55.1026 104.2628 0028438 116.6437 243.6215 2.00559036 78139 GALILEO 5 (261) 1 40128U 14050A 25134.56643698 -.00000055 00000-0 00000-0 0 9998 2 40128 49.3110 289.6871 1629244 164.0202 201.8119 1.85519796 70920 GALILEO 6 (262) 1 40129U 14050B 25136.44043158 -.00000042 00000-0 00000-0 0 9999 2 40129 49.3246 288.6926 1629401 164.8693 200.6700 1.85520377 73123 NAVSTAR 72 (USA 258) 1 40294U 14068A 25137.04854453 -.00000054 00000-0 00000-0 0 9999 2 40294 56.6984 46.2572 0060127 65.6239 295.0274 2.00551866 77255 COSMOS 2501 (GLONASS) 1 40315U 14075A 25136.77660612 .00000046 00000-0 00000-0 0 9992 2 40315 63.6140 204.0982 0021281 210.0836 149.8751 2.13101442 81400 NAVSTAR 73 (USA 260) 1 40534U 15013A 25137.19301323 .00000021 00000-0 00000-0 0 9999 2 40534 53.2426 220.5624 0098518 35.1341 325.5775 2.00575136 73888 GALILEO 7 (263) 1 40544U 15017A 25136.09571344 -.00000070 00000-0 00000-0 0 9999 2 40544 56.8933 352.4134 0002511 291.2038 68.8140 1.70475923 62439 GALILEO 8 (264) 1 40545U 15017B 25135.17744687 -.00000072 00000-0 00000-0 0 9992 2 40545 56.9002 352.4551 0001744 269.5085 90.5176 1.70475712 25467 NAVSTAR 74 (USA 262) 1 40730U 15033A 25137.35546752 -.00000020 00000-0 00000-0 0 9994 2 40730 54.3055 283.3782 0103961 24.9563 335.5262 2.00576710 72058 GALILEO 9 (205) 1 40889U 15045A 25136.70536002 .00000017 00000-0 00000-0 0 9992 2 40889 55.0777 232.5567 0003331 35.5739 324.4976 1.70474024 60251 GALILEO 10 (206) 1 40890U 15045B 25135.75283000 .00000016 00000-0 00000-0 0 9994 2 40890 55.0776 232.5784 0003327 71.5526 288.5306 1.70474085 60267 NAVSTAR 75 (USA 265) 1 41019U 15062A 25136.90983531 -.00000054 00000-0 00000-0 0 9994 2 41019 56.6750 46.1188 0102919 228.4954 130.6429 2.00566796 69887 GALILEO 12 (269) 1 41174U 15079A 25135.33469095 .00000048 00000-0 00000-0 0 9996 2 41174 55.5927 112.1859 0005580 321.1416 38.7808 1.70474174 57994 GALILEO 11 (268) 1 41175U 15079B 25136.72785137 .00000051 00000-0 00000+0 0 9992 2 41175 55.5964 112.1449 0004905 321.6070 38.3229 1.70474041 58595 NAVSTAR 76 (USA 266) 1 41328U 16007A 25136.99318023 .00000044 00000-0 00000-0 0 9992 2 41328 55.2866 105.1852 0087894 242.7639 116.3126 2.00571303 67894 GALILEO 14 (26B) 1 41549U 16030A 25134.50538436 .00000011 00000-0 00000-0 0 9994 2 41549 55.2265 232.6597 0002156 2.6204 357.4218 1.70474309 55872 GALILEO 13 (26A) 1 41550U 16030B 25134.76315519 .00000012 00000-0 00000-0 0 9990 2 41550 55.2258 232.6510 0002926 217.7463 142.2758 1.70474790 55875 GALILEO 15 (267) 1 41859U 16069A 25136.80128049 .00000051 00000-0 00000-0 0 9994 2 41859 55.2610 112.0658 0005845 310.0667 49.8471 1.70474057 52641 GALILEO 16 (26C) 1 41860U 16069B 25135.48200772 .00000048 00000-0 00000-0 0 9999 2 41860 55.2561 112.0981 0004462 331.4317 28.5064 1.70474296 52872 GALILEO 17 (26D) 1 41861U 16069C 25135.26344384 .00000047 00000-0 00000-0 0 9993 2 41861 55.2600 112.1115 0005798 294.9307 64.9716 1.70474567 52736 GALILEO 18 (26E) 1 41862U 16069D 25135.99563569 .00000049 00000-0 00000-0 0 9994 2 41862 55.2591 112.0844 0004859 299.1285 60.7861 1.70474330 52871